Location: SWAOG Dark Site
(41.6289°N, 88.5397°W)
Time: 16:18:28
(UTC-05:00)

Tianhe-1 - Visible Passes

Search period start: 24 June 2021 00:00
Search period end: 04 July 2021 00:00
Orbit: 375 x 385 km, 41.5° (Epoch: 24 June)

Date Brightness Start Highest point End Pass type
(mag) Time Alt. Az. Time Alt. Az. Time Alt. Az.
24 Jun 1.3 03:08:45 52° SE 03:08:45 52° SE 03:11:37 10° E visible
24 Jun 1.0 04:42:04 10° W 04:45:13 90° SSW 04:48:23 10° E visible
25 Jun 4.0 02:10:21 11° E 02:10:21 11° E 02:10:28 10° E visible
25 Jun 0.9 03:42:27 25° W 03:44:08 86° S 03:47:18 10° E visible
26 Jun 2.1 02:44:04 38° E 02:44:04 38° E 02:46:11 10° E visible
26 Jun 1.0 04:16:38 10° W 04:19:47 84° S 04:22:56 10° E visible
27 Jun 0.9 03:17:52 47° W 03:18:40 90° S 03:21:49 10° E visible
28 Jun 3.4 02:19:41 18° E 02:19:41 18° E 02:20:40 10° E visible
28 Jun 0.9 03:51:49 15° W 03:54:14 69° S 03:57:22 10° ESE visible
29 Jun 1.7 02:53:51 48° ESE 02:53:51 48° ESE 02:56:13 10° E visible
29 Jun 1.7 04:26:47 10° W 04:29:40 34° SSW 04:32:33 10° SE visible
30 Jun 1.1 03:28:28 51° SSW 03:28:34 51° SSW 03:31:38 10° ESE visible
01 Jul 2.2 04:03:45 22° SSW 04:03:52 22° SSW 04:06:23 10° SSE visible
02 Jul 3.0 21:10:37 10° S 21:12:01 12° SSE 21:13:26 10° ESE visible
02 Jul 3.3 22:45:16 10° WSW 22:45:59 16° SW 22:45:59 16° SW visible
03 Jul 1.8 21:44:18 10° SW 21:47:06 31° SSE 21:48:52 18° ESE visible
03 Jul 3.7 23:20:33 10° W 23:21:01 14° W 23:21:01 14° W visible
